Weather History for Hickory, NC

Change the Weather History Date:

Thursday, August 7, 2014

  Actual Average Record
Temperature  
Mean Temperature 77 °F -  
Max Temperature 87 °F 85 °F 99 °F (2007)
Min Temperature 68 °F 67 °F 51 °F (2004)
Cooling Degree Days 12    
Growing Degree Days 27 (Base 50)    
Moisture  
Dew Point 64 °F    
Average Humidity 70    
Maximum Humidity 93    
Minimum Humidity 44    
Precipitation  
Precipitation 0.00 in - - ()
Sea Level Pressure  
Sea Level Pressure 29.95 in    
Wind  
Wind Speed 2 mph (North)    
Max Wind Speed 6 mph    
Max Gust Speed -    
Visibility 9 miles    
Events      
Averages and records for this station are not official NWS values.
T = Trace of Precipitation, MM = Missing Value Source: NWS Daily Summary

Daily Weather History Graph

Daily Weather History Graph

Search for Another Location

Airport:

Trip Planner

Search our weather history database for the weather conditions in past years. The results will help you decide how hot, cold, wet, or windy it might be!

Date:

Astronomy

Aug. 07, 2014 Rise Set
Actual Time 6:38 AM EDT 8:23 PM EDT
Civil Twilight 6:10 AM EDT 8:51 PM EDT
Nautical Twilight 5:36 AM EDT 9:24 PM EDT
Astronomical Twilight 5:01 AM EDT 10:00 PM EDT
Moon 5:37 PM EDT (8/7) 3:08 AM EDT (8/7)
Length of Visible Light 14h 41m
Length of Day
13h 45m
Waxing Gibbous, 86% of the Moon is Illuminated
Aug 7
Waxing Gibbous
Aug 10
Full
Aug 17
Last Quarter
Aug 25
New
Sep 2
First Quarter

Hourly Weather History & Observations

Time (EDT) Temp. Heat Index Dew Point Humidity Pressure Visibility Wind Dir Wind Speed Gust Speed Precip Events Conditions
12:53 AM 72.0 °F - 66.9 °F 84% 29.94 in 10.0 mi Calm Calm - N/A   Overcast
1:53 AM 71.1 °F - 66.9 °F 87% 29.93 in 9.0 mi WNW 3.5 mph - N/A   Mostly Cloudy
2:53 AM 70.0 °F - 66.9 °F 90% 29.92 in 8.0 mi Calm Calm - N/A   Mostly Cloudy
3:53 AM 69.1 °F - 66.9 °F 93% 29.91 in 7.0 mi NW 3.5 mph - N/A   Partly Cloudy
4:53 AM 69.1 °F - 66.0 °F 90% 29.91 in 8.0 mi North 3.5 mph - N/A   Clear
5:53 AM 68.0 °F - 64.9 °F 90% 29.92 in 7.0 mi Calm Calm - N/A   Clear
6:53 AM 68.0 °F - 64.9 °F 90% 29.95 in 7.0 mi North 3.5 mph - N/A   Clear
7:53 AM 69.1 °F - 66.0 °F 90% 29.96 in 5.0 mi West 3.5 mph - N/A   Clear
8:53 AM 71.1 °F - 66.0 °F 84% 29.99 in 7.0 mi WNW 3.5 mph - N/A   Clear
9:53 AM 75.9 °F - 64.9 °F 69% 29.98 in 9.0 mi North 4.6 mph - N/A   Clear
10:53 AM 79.0 °F - 66.0 °F 64% 29.99 in 9.0 mi Calm Calm - N/A   Clear
11:53 AM 80.1 °F 81.5 °F 63.0 °F 56% 29.99 in 10.0 mi North 3.5 mph - N/A   Clear
12:53 PM 84.0 °F 84.4 °F 61.0 °F 46% 29.97 in 10.0 mi NNE 3.5 mph - N/A   Clear
1:53 PM 82.9 °F 83.7 °F 62.1 °F 49% 29.96 in 10.0 mi Calm Calm - N/A   Scattered Clouds
2:53 PM 82.9 °F 83.7 °F 62.1 °F 49% 29.96 in 10.0 mi SSW 3.5 mph - N/A   Mostly Cloudy
3:53 PM 84.9 °F 85.4 °F 62.1 °F 46% 29.94 in 10.0 mi Variable 5.8 mph - N/A   Scattered Clouds
4:53 PM 86.0 °F 86.3 °F 62.1 °F 44% 29.94 in 10.0 mi NNE 5.8 mph - N/A   Clear
5:53 PM 82.9 °F 83.7 °F 62.1 °F 49% 29.94 in 10.0 mi Variable 4.6 mph - N/A   Overcast
6:53 PM 82.9 °F 83.3 °F 61.0 °F 47% 29.94 in 10.0 mi Calm Calm - N/A   Scattered Clouds
7:53 PM 80.1 °F 81.5 °F 63.0 °F 56% 29.94 in 10.0 mi Calm Calm - N/A   Clear
8:53 PM 78.1 °F - 64.0 °F 62% 29.96 in 10.0 mi Calm Calm - N/A   Clear
9:53 PM 75.9 °F - 64.9 °F 69% 29.97 in 10.0 mi NE 4.6 mph - N/A   Clear
10:53 PM 72.0 °F - 68.0 °F 87% 29.99 in 8.0 mi ENE 4.6 mph - N/A   Clear
11:53 PM 72.0 °F - 66.0 °F 81% 30.00 in 9.0 mi ENE 3.5 mph - N/A   Clear